FW3681 Weather Reports


Display with metric or nautical units.
time (UTC)temp
F
wind
direction
speed
MPH
gust
MPH
rain 1hr
in
rain 24hr
in
rain mn
in
humidity
%
barometer
mb
20190218075814 69 288 1.0 1.0 0.00 0.26 0.00 95 1014.4
20190218075316 69 89 0.0 1.0 0.00 0.26 0.00 95 1014.4
20190218074819 69 89 0.0 2.0 0.00 0.26 0.00 94 1014.2
20190218074328 69 89 1.0 2.0 0.00 0.26 0.00 94 1014.1
20190218073811 69 289 1.0 3.0 0.00 0.26 0.00 94 1014.1
20190218073311 69 207 1.0 3.0 0.00 0.26 0.00 94 1014.2
20190218072810 69 203 1.0 3.0 0.00 0.26 0.00 94 1014.1
20190218072319 69 152 1.0 3.0 0.00 0.26 0.00 94 1014.1
20190218071818 69 169 2.0 4.0 0.00 0.26 0.00 94 1014.0
20190218071320 70 168 1.0 5.0 0.00 0.26 0.00 94 1014.1
20190218070829 69 167 1.0 5.0 0.00 0.26 0.00 94 1014.1
20190218070323 69 143 1.0 3.0 0.00 0.26 0.00 94 1014.2
20190218065813 69 155 1.0 4.0 0.00 0.26 0.00 94 1014.2
20190218065322 69 155 2.0 4.0 0.00 0.26 0.00 94 1014.2
20190218064824 69 219 1.0 6.0 0.00 0.26 0.00 94 1014.2
20190218064326 69 233 2.0 6.0 0.00 0.26 0.00 95 1014.2
20190218063816 69 217 1.0 2.0 0.00 0.26 0.00 95 1014.2
20190218063317 69 195 0.0 2.0 0.00 0.26 0.00 95 1014.2
20190218062814 69 167 0.0 2.0 0.00 0.26 0.00 95 1014.2
20190218062323 69 244 0.0 1.0 0.00 0.26 0.00 95 1014.2
20190218061825 69 249 0.0 1.0 0.00 0.26 0.00 95 1014.2
20190218061327 69 209 0.0 1.0 0.00 0.26 0.00 95 1014.1
20190218060809 69 241 0.0 1.0 0.00 0.26 0.00 95 1014.1
20190218060332 69 240 0.0 1.0 0.00 0.26 0.00 95 1014.1
20190218055820 69 240 0.0 1.0 0.00 0.26 0.26 94 1014.0
20190218055329 69 240 0.0 1.0 0.00 0.26 0.26 94 1013.9
20190218054811 70 248 0.0 1.0 0.00 0.26 0.26 94 1013.9
20190218054314 70 248 0.0 1.0 0.00 0.26 0.26 94 1014.0
20190218053817 70 248 0.0 2.0 0.00 0.26 0.26 94 1014.0
20190218053326 70 266 1.0 2.0 0.00 0.26 0.26 94 1014.1
20190218052812 70 274 1.0 2.0 0.00 0.26 0.26 94 1014.1
20190218052315 70 231 1.0 2.0 0.00 0.26 0.26 94 1014.1
20190218051823 70 276 0.0 2.0 0.00 0.26 0.26 94 1014.1
20190218051325 70 252 1.0 3.0 0.00 0.26 0.26 94 1014.2
20190218050827 70 214 1.0 3.0 0.00 0.26 0.26 94 1014.2
20190218050329 70 121 0.0 4.0 0.00 0.26 0.26 94 1014.2
20190218045819 70 267 1.0 4.0 0.00 0.26 0.26 94 1014.1
20190218045322 70 267 0.0 2.0 0.00 0.26 0.26 94 1014.1
20190218044831 70 238 1.0 2.0 0.00 0.26 0.26 94 1014.1
20190218044314 70 253 0.0 1.0 0.00 0.26 0.26 94 1014.2
20190218043816 70 274 1.0 1.0 0.00 0.26 0.26 94 1014.1
20190218043318 70 193 0.0 2.0 0.00 0.26 0.26 94 1014.1
20190218042827 70 153 1.0 2.0 0.00 0.26 0.26 94 1014.0
20190218042327 70 262 0.0 1.0 0.00 0.26 0.26 94 1014.0
20190218041809 70 248 0.0 3.0 0.00 0.26 0.26 94 1014.0
20190218041311 70 251 0.0 4.0 0.00 0.26 0.26 94 1014.0
20190218040819 70 124 1.0 4.0 0.00 0.26 0.26 94 1014.0
20190218040334 70 131 1.0 4.0 0.00 0.26 0.26 94 1014.0
20190218035830 70 274 1.0 3.0 0.00 0.26 0.26 94 1014.0
20190218035312 70 196 1.0 6.0 0.00 0.26 0.26 94 1013.9
20190218034814 70 131 2.0 6.0 0.00 0.26 0.26 94 1013.9
20190218034315 70 195 2.0 3.0 0.00 0.26 0.26 94 1013.9
20190218033824 70 165 1.0 3.0 0.00 0.26 0.26 94 1014.0
20190218033326 70 156 0.0 4.0 0.00 0.26 0.26 94 1014.0
20190218032835 70 243 1.0 3.0 0.00 0.26 0.26 94 1014.1
20190218032317 70 226 0.0 2.0 0.00 0.26 0.26 94 1013.9
20190218031819 70 170 1.0 1.0 0.00 0.26 0.26 94 1013.9
20190218031321 70 139 1.0 2.0 0.00 0.26 0.26 94 1013.9
20190218030830 70 134 1.0 4.0 0.00 0.26 0.26 94 1013.8
20190218030324 70 172 1.0 4.0 0.00 0.26 0.26 94 1013.9
20190218025813 70 283 0.0 2.0 0.00 0.26 0.26 94 1013.8
20190218025322 70 214 0.0 4.0 0.00 0.26 0.26 94 1013.9
20190218024825 70 244 0.0 4.0 0.00 0.26 0.26 94 1013.8
20190218024327 70 183 1.0 4.0 0.00 0.26 0.26 94 1013.7
20190218023809 70 139 1.0 3.0 0.00 0.26 0.26 94 1013.7
20190218023318 70 184 1.0 5.0 0.00 0.26 0.26 94 1013.7
20190218022819 70 190 1.0 5.0 0.00 0.26 0.26 94 1013.6
20190218022322 70 195 2.0 6.0 0.00 0.26 0.26 94 1013.5
20190218021831 70 246 1.0 6.0 0.00 0.26 0.26 94 1013.4
20190218021312 71 168 2.0 4.0 0.00 0.26 0.26 94 1013.4
20190218020814 70 136 2.0 4.0 0.00 0.26 0.26 94 1013.4
20190218020335 70 317 1.0 5.0 0.00 0.26 0.26 94 1013.3
20190218015825 70 200 2.0 5.0 0.00 0.26 0.26 94 1013.4
20190218015327 70 113 1.0 4.0 0.00 0.26 0.26 94 1013.3
20190218014809 71 143 0.0 3.0 0.00 0.26 0.26 94 1013.4
20190218014317 71 243 1.0 5.0 0.00 0.26 0.26 94 1013.3
20190218013819 71 207 2.0 5.0 0.00 0.26 0.26 93 1013.4
20190218013329 71 220 1.0 5.0 0.00 0.26 0.26 93 1013.3
20190218012811 71 206 1.0 5.0 0.00 0.26 0.26 94 1013.2
20190218012314 71 130 1.0 3.0 0.00 0.26 0.26 94 1013.3
20190218011832 71 221 1.0 3.0 0.00 0.26 0.26 94 1013.3
20190218011315 71 104 0.0 5.0 0.00 0.26 0.26 94 1013.3
20190218010817 71 226 1.0 5.0 0.00 0.26 0.26 94 1013.2
20190218010338 71 211 1.0 2.0 0.00 0.26 0.26 94 1013.2
20190218005827 71 274 0.0 2.0 0.00 0.26 0.26 93 1013.0
20190218005328 71 89 1.0 6.0 0.00 0.26 0.26 93 1013.1
20190218004810 71 206 2.0 6.0 0.00 0.26 0.26 94 1013.0
20190218004318 71 153 2.0 5.0 0.00 0.26 0.26 94 1013.0
20190218003820 71 181 1.0 4.0 0.06 0.26 0.26 94 1012.8
20190218003323 71 240 2.0 4.0 0.15 0.26 0.26 94 1012.8
20190218002832 71 233 1.0 3.0 0.19 0.26 0.26 94 1012.7
20190218002314 71 188 1.0 2.0 0.23 0.26 0.26 94 1012.6
20190218001815 71 200 0.0 3.0 0.25 0.26 0.26 94 1012.6
20190218001318 71 219 1.0 3.0 0.26 0.26 0.26 94 1012.5
20190218000810 71 157 1.0 3.0 0.26 0.26 0.26 94 1012.4
20190218000325 71 251 1.0 3.0 0.26 0.26 0.26 94 1012.4
20190217235815 71 231 0.0 3.0 0.26 0.26 0.26 93 1012.3
20190217235321 71 254 1.0 3.0 0.26 0.26 0.26 93 1012.3
20190217234823 71 236 2.0 4.0 0.26 0.26 0.26 93 1012.3
20190217234331 71 268 2.0 4.0 0.25 0.25 0.25 93 1012.2
20190217233814 72 245 2.0 4.0 0.19 0.19 0.19 92 1012.1
20190217233315 72 264 1.0 2.0 0.10 0.10 0.10 91 1012.1
20190217232816 73 64 0.0 1.0 0.07 0.07 0.07 89 1011.8
20190217232325 74 206 0.0 4.0 0.03 0.03 0.03 87 1011.8
20190217231826 75 244 1.0 4.0 0.00 0.00 0.00 85 1011.7
20190217231328 75 162 1.0 3.0 0.00 0.00 0.00 83 1011.6
20190217230810 75 155 1.0 4.0 0.00 0.00 0.00 82 1011.5
20190217230330 75 231 2.0 6.0 0.00 0.00 0.00 81 1011.4
20190217225819 75 75 4.0 6.0 0.00 0.00 0.00 81 1011.4
20190217225327 75 162 0.0 3.0 0.00 0.00 0.00 81 1011.5
20190217224809 76 168 1.0 3.0 0.00 0.00 0.00 80 1011.4
20190217224312 76 103 0.0 2.0 0.00 0.00 0.00 80 1011.3
20190217223814 76 195 1.0 7.0 0.00 0.00 0.00 79 1011.2
20190217223323 76 114 3.0 7.0 0.00 0.00 0.00 79 1011.1
20190217222825 76 187 3.0 5.0 0.00 0.00 0.00 79 1010.8
20190217222333 76 163 2.0 6.0 0.00 0.00 0.00 79 1011.1
20190217221815 76 148 3.0 6.0 0.00 0.00 0.00 79 1011.1
20190217221317 76 162 2.0 3.0 0.00 0.00 0.00 79 1011.2
20190217220819 76 209 1.0 3.0 0.00 0.00 0.00 80 1011.5
20190217220322 76 191 1.0 4.0 0.00 0.00 0.00 80 1011.4
20190217215812 76 193 1.0 4.0 0.00 0.00 0.00 80 1011.4
20190217215314 76 327 1.0 4.0 0.00 0.00 0.00 81 1011.6
20190217214821 76 138 1.0 6.0 0.00 0.00 0.00 81 1011.4
20190217214323 77 358 2.0 6.0 0.00 0.00 0.00 79 1011.4
20190217213825 77 221 3.0 4.0 0.00 0.00 0.00 78 1011.5
20190217213331 77 136 1.0 6.0 0.00 0.00 0.00 77 1011.5
20190217212814 77 148 1.0 6.0 0.00 0.00 0.00 77 1011.6
20190217212315 77 181 3.0 7.0 0.00 0.00 0.00 76 1011.5
20190217211818 78 199 2.0 7.0 0.00 0.00 0.00 75 1011.7
20190217211326 78 247 1.0 10.0 0.00 0.00 0.00 75 1011.5
20190217210809 78 229 4.0 10.0 0.00 0.00 0.00 75 1011.6
20190217210324 78 225 2.0 6.0 0.00 0.00 0.00 74 1011.6
20190217205821 78 172 3.0 7.0 0.00 0.00 0.00 74 1011.6
20190217205323 78 188 3.0 7.0 0.00 0.00 0.00 74 1011.6
20190217204826 78 133 3.0 5.0 0.00 0.00 0.00 73 1011.6
20190217204334 78 161 1.0 3.0 0.00 0.00 0.00 73 1011.6
20190217203818 78 197 1.0 3.0 0.00 0.00 0.00 73 1011.7
20190217203322 78 139 2.0 5.0 0.00 0.00 0.00 73 1011.7
20190217202831 79 152 2.0 6.0 0.00 0.00 0.00 72 1011.8
20190217202314 79 216 2.0 6.0 0.00 0.00 0.00 71 1011.8
20190217201819 79 220 1.0 6.0 0.00 0.00 0.00 71 1011.8
20190217201321 79 166 1.0 8.0 0.00 0.00 0.00 70 1011.8
20190217200832 79 151 2.0 8.0 0.00 0.00 0.00 71 1011.8
20190217200327 79 134 4.0 6.0 0.00 0.00 0.00 72 1011.8
20190217195818 79 230 2.0 5.0 0.00 0.00 0.00 73 1012.0
20190217195329 78 274 1.0 3.0 0.00 0.00 0.00 75 1012.0
20190217194812 78 117 1.0 2.0 0.00 0.00 0.00 76 1012.1
20190217194314 77 240 1.0 2.0 0.00 0.00 0.00 76 1012.0
20190217193815 77 127 1.0 2.0 0.00 0.00 0.00 77 1012.2
20190217193326 76 83 0.0 1.0 0.00 0.00 0.00 78 1012.2
20190217192827 76 83 0.0 3.0 0.00 0.00 0.00 78 1012.3
20190217192310 76 160 1.0 4.0 0.00 0.00 0.00 78 1012.2
20190217191815 76 151 1.0 6.0 0.00 0.00 0.00 78 1012.3
20190217191310 76 139 1.0 6.0 0.00 0.00 0.00 78 1012.4
20190217190812 76 117 3.0 8.0 0.00 0.00 0.00 78 1012.5
20190217190326 76 212 2.0 8.0 0.00 0.00 0.00 78 1012.5
20190217185822 76 153 2.0 8.0 0.00 0.00 0.00 77 1012.7
20190217185325 76 157 3.0 8.0 0.00 0.00 0.00 78 1012.7
20190217184834 76 65 2.0 10.0 0.00 0.00 0.00 79 1012.8
20190217184327 76 112 2.0 8.0 0.00 0.00 0.00 79 1013.0
20190217183810 75 169 2.0 5.0 0.00 0.00 0.00 79 1012.9
20190217183311 75 129 2.0 6.0 0.00 0.00 0.00 80 1013.1
20190217182821 75 139 3.0 6.0 0.00 0.00 0.00 79 1013.1
20190217182324 75 117 2.0 6.0 0.00 0.00 0.00 80 1013.2
20190217181827 75 169 3.0 9.0 0.00 0.00 0.00 80 1013.3
20190217181311 74 144 1.0 9.0 0.00 0.00 0.00 81 1013.3
20190217180820 74 204 3.0 5.0 0.00 0.00 0.00 81 1013.3
20190217180336 74 223 2.0 6.0 0.00 0.00 0.00 83 1013.3
20190217175833 73 99 2.0 4.0 0.00 0.00 0.00 83 1013.3
20190217175318 73 136 2.0 6.0 0.00 0.00 0.00 83 1013.4
20190217174822 73 166 3.0 6.0 0.00 0.00 0.00 84 1013.4
20190217174324 72 121 1.0 7.0 0.00 0.00 0.00 85 1013.5
20190217173834 72 154 3.0 7.0 0.00 0.00 0.00 84 1013.5
20190217173318 72 141 1.0 7.0 0.00 0.00 0.00 85 1013.5
20190217172822 72 126 3.0 7.0 0.00 0.00 0.00 85 1013.4
20190217172324 72 131 3.0 7.0 0.00 0.00 0.00 84 1013.5
20190217171835 72 103 4.0 8.0 0.00 0.00 0.00 85 1013.5
20190217171317 72 142 4.0 7.0 0.00 0.00 0.00 85 1013.5
20190217170819 72 94 3.0 6.0 0.00 0.00 0.00 86 1013.7
20190217170342 71 214 3.0 9.0 0.00 0.00 0.00 86 1013.8
20190217165812 71 126 4.0 9.0 0.00 0.00 0.00 86 1014.0
20190217165314 71 104 4.0 7.0 0.00 0.00 0.00 86 1014.1
20190217164824 71 125 2.0 7.0 0.00 0.00 0.00 87 1014.1
20190217164327 71 120 3.0 9.0 0.00 0.00 0.00 87 1014.3
20190217163810 71 167 5.0 8.0 0.00 0.00 0.00 87 1014.3
20190217163311 71 133 3.0 6.0 0.00 0.00 0.00 87 1014.5
20190217162819 70 68 2.0 6.0 0.00 0.00 0.00 88 1014.4
20190217162321 70 158 2.0 6.0 0.00 0.00 0.00 89 1014.5
20190217161823 69 141 3.0 6.0 0.00 0.00 0.00 89 1014.6
20190217161333 69 127 3.0 6.0 0.00 0.00 0.00 90 1014.6
20190217160816 69 137 3.0 6.0 0.00 0.00 0.00 90 1014.6
20190217160331 69 178 2.0 6.0 0.00 0.00 0.00 91 1014.6
20190217155829 68 111 2.0 4.0 0.00 0.00 0.00 92 1014.4
20190217155312 67 137 3.0 5.0 0.00 0.00 0.00 93 1014.5
20190217154814 67 103 2.0 8.0 0.00 0.00 0.00 93 1014.4
20190217154318 66 120 3.0 8.0 0.00 0.00 0.00 94 1014.4
20190217153828 66 146 3.0 7.0 0.00 0.00 0.00 94 1014.5
20190217153311 66 153 3.0 8.0 0.00 0.00 0.00 94 1014.4
20190217152815 66 130 3.0 8.0 0.00 0.00 0.00 94 1014.4
20190217152325 66 146 1.0 6.0 0.00 0.00 0.00 95 1014.4
20190217151826 65 118 2.0 6.0 0.00 0.00 0.00 95 1014.2
20190217151328 65 120 3.0 6.0 0.00 0.00 0.00 95 1014.4
20190217150811 65 120 2.0 4.0 0.00 0.00 0.00 95 1014.3
20190217150333 65 107 2.0 4.0 0.00 0.00 0.00 96 1014.3
20190217145825 65 113 2.0 4.0 0.00 0.00 0.00 96 1014.5
20190217145330 64 136 3.0 4.0 0.00 0.00 0.00 95 1014.4
20190217144810 64 140 1.0 3.0 0.00 0.00 0.00 95 1014.5
20190217144328 64 127 2.0 4.0 0.00 0.00 0.00 95 1014.4
20190217143810 64 203 2.0 4.0 0.00 0.00 0.00 95 1014.3
20190217143319 64 156 2.0 3.0 0.00 0.00 0.00 95 1014.3
20190217142823 64 158 2.0 3.0 0.00 0.00 0.00 95 1014.4
20190217142310 64 153 1.0 3.0 0.00 0.00 0.00 95 1014.3
20190217141813 64 146 1.0 3.0 0.00 0.00 0.00 95 1014.2
20190217141322 64 124 2.0 3.0 0.00 0.00 0.00 95 1014.2
20190217140825 64 171 1.0 4.0 0.00 0.00 0.00 95 1014.0
20190217140347 64 137 1.0 4.0 0.00 0.00 0.00 95 1013.8
20190217135818 63 122 1.0 3.0 0.00 0.00 0.00 95 1013.7
20190217135322 63 134 2.0 8.0 0.00 0.00 0.00 95 1013.1
20190217134824 63 145 2.0 8.0 0.00 0.00 0.00 95 1013.2
20190217134316 63 120 3.0 7.0 0.00 0.00 0.00 96 1013.2
20190217133817 63 119 3.0 8.0 0.00 0.00 0.00 96 1013.4
20190217133320 63 121 2.0 5.0 0.00 0.00 0.00 96 1013.4
20190217132830 63 139 3.0 6.0 0.00 0.00 0.00 96 1013.3
20190217132313 63 120 3.0 6.0 0.00 0.00 0.00 96 1013.2
20190217131814 63 162 2.0 5.0 0.00 0.00 0.00 96 1013.2
20190217131316 63 153 4.0 5.0 0.00 0.00 0.00 96 1013.4
20190217130827 63 139 2.0 5.0 0.00 0.00 0.00 96 1013.4
20190217130323 63 150 3.0 4.0 0.00 0.00 0.00 96 1013.2
20190217125813 63 144 1.0 2.0 0.00 0.00 0.00 96 1013.3
20190217125321 63 128 2.0 6.0 0.00 0.00 0.00 96 1013.3
20190217124822 63 152 2.0 6.0 0.00 0.00 0.00 96 1013.3
20190217124325 63 195 2.0 6.0 0.00 0.00 0.00 96 1013.4
20190217123834 63 135 2.0 6.0 0.00 0.00 0.00 96 1013.2
20190217123316 63 141 2.0 5.0 0.00 0.00 0.00 96 1013.2
20190217122818 63 131 2.0 4.0 0.00 0.00 0.00 96 1012.9
20190217122320 63 156 1.0 3.0 0.00 0.00 0.00 96 1012.9
20190217121829 63 236 1.0 7.0 0.00 0.00 0.00 96 1012.6
20190217121311 63 150 3.0 7.0 0.00 0.00 0.00 96 1012.5
20190217120813 63 153 2.0 4.0 0.00 0.00 0.00 96 1012.4
20190217120334 63 150 1.0 6.0 0.00 0.00 0.00 96 1012.5
20190217115821 63 124 2.0 6.0 0.00 0.00 0.00 96 1012.4
20190217115323 63 174 2.0 6.0 0.00 0.00 0.00 96 1012.1
20190217114832 63 149 2.0 4.0 0.00 0.00 0.00 96 1012.1
20190217114314 63 128 2.0 3.0 0.00 0.00 0.00 96 1012.2
20190217113816 63 133 1.0 3.0 0.00 0.00 0.00 96 1012.2
20190217113325 63 118 1.0 2.0 0.00 0.00 0.00 96 1012.2
20190217112827 63 157 1.0 4.0 0.00 0.00 0.00 96 1011.9
20190217112309 63 100 2.0 4.0 0.00 0.00 0.00 96 1011.9
20190217111811 63 201 3.0 4.0 0.00 0.00 0.00 96 1011.8
20190217111320 63 155 2.0 3.0 0.00 0.00 0.00 96 1011.8
20190217110822 63 145 1.0 4.0 0.00 0.00 0.00 96 1011.8
20190217110343 63 126 1.0 4.0 0.00 0.00 0.00 96 1011.7
20190217105812 63 152 1.0 3.0 0.00 0.00 0.00 96 1011.7
20190217105314 63 113 2.0 4.0 0.00 0.00 0.00 96 1011.5
20190217104816 63 162 2.0 6.0 0.00 0.00 0.00 96 1011.6
20190217104325 63 123 3.0 6.0 0.00 0.00 0.00 96 1011.5
20190217103827 63 156 1.0 5.0 0.00 0.00 0.00 96 1011.5
20190217103309 63 200 2.0 5.0 0.00 0.00 0.00 96 1011.6
20190217102811 63 146 3.0 5.0 0.00 0.00 0.00 96 1011.5
20190217102320 63 141 2.0 5.0 0.00 0.00 0.00 96 1011.5
20190217101822 63 138 0.0 5.0 0.00 0.00 0.00 96 1011.3
20190217101331 63 86 3.0 5.0 0.00 0.00 0.00 96 1011.3
20190217100813 63 158 2.0 8.0 0.00 0.00 0.00 96 1011.3
20190217100327 63 144 2.0 7.0 0.00 0.00 0.00 96 1011.5
20190217095817 63 163 2.0 4.0 0.00 0.00 0.00 96 1011.4
20190217095326 63 124 1.0 3.0 0.00 0.00 0.00 96 1011.5
20190217094828 63 138 1.0 3.0 0.00 0.00 0.00 96 1011.4
20190217094328 63 162 1.0 3.0 0.00 0.00 0.00 96 1011.5
20190217093810 63 137 1.0 2.0 0.00 0.00 0.00 96 1011.6
20190217093309 63 147 1.0 3.0 0.00 0.00 0.00 96 1011.7
20190217092811 63 144 2.0 3.0 0.00 0.00 0.00 96 1011.6
20190217092320 63 141 1.0 2.0 0.00 0.00 0.00 95 1011.5
20190217091822 63 150 1.0 2.0 0.00 0.00 0.00 95 1011.4
20190217091324 63 136 1.0 1.0 0.00 0.00 0.00 95 1011.6
20190217090810 63 148 0.0 1.0 0.00 0.00 0.00 95 1011.7
20190217090331 63 151 0.0 2.0 0.00 0.00 0.00 95 1011.7
20190217085821 63 159 0.0 2.0 0.00 0.00 0.00 95 1011.7
20190217085330 63 124 1.0 2.0 0.00 0.00 0.00 95 1011.7
20190217084825 63 126 0.0 1.0 0.00 0.00 0.00 95 1011.8
20190217084327 63 111 0.0 1.0 0.00 0.00 0.00 95 1011.8
20190217083818 63 111 1.0 1.0 0.00 0.00 0.00 95 1011.7
20190217083320 63 111 0.0 1.0 0.00 0.00 0.00 95 1011.6
20190217082824 63 111 0.0 1.0 0.00 0.00 0.00 95 1011.6
20190217082333 63 111 1.0 1.0 0.00 0.00 0.00 95 1011.6
20190217081815 63 111 0.0 1.0 0.00 0.00 0.00 95 1011.4
20190217081317 63 111 0.0 1.0 0.00 0.00 0.00 95 1011.3
20190217080819 63 105 0.0 1.0 0.00 0.00 0.00 95 1011.2
20190217080340 63 143 1.0 3.0 0.00 0.00 0.00 95 1011.3